Meteo pe oră la Dzhurzhivka

Astăzi, 5 Martie, Vineri

Timp Temperatura Precipitaţii Vânt Presiune Umiditate
00:00 +4°C° 0.1 mm 2 m/s 737 mmHg 85%
01:00 +4°C° 0.1 mm 2 m/s 738 mmHg 85%
02:00 +5°C° 0.1 mm 1 m/s 738 mmHg 86%
03:00 +5°C° 0.1 mm 1 m/s 737 mmHg 87%
04:00 +5°C° 0.1 mm 1 m/s 737 mmHg 89%
05:00 +5°C° 0.1 mm 1 m/s 737 mmHg 91%
06:00 +5°C° 0.2 mm 1 m/s 737 mmHg 93%
07:00 +4°C° 0.2 mm 1 m/s 737 mmHg 94%
08:00 +4°C° 0.2 mm 1 m/s 736 mmHg 95%
09:00 +3°C° 0.9 mm 2 m/s 737 mmHg 96%
10:00 +3°C° 0.9 mm 2 m/s 737 mmHg 96%
11:00 +1°C° 0.9 mm 3 m/s 737 mmHg 96%
12:00 +1°C° 0.5 mm 3 m/s 737 mmHg 96%
13:00 +1°C° 0.5 mm 3 m/s 737 mmHg 96%
14:00 +1°C° 0.5 mm 3 m/s 737 mmHg 96%
15:00 0°C° 0.4 mm 4 m/s 737 mmHg 96%
16:00 -1°C° 0.4 mm 4 m/s 738 mmHg 96%
17:00 -1°C° 0.4 mm 5 m/s 738 mmHg 96%
18:00 -1°C° 0.7 mm 5 m/s 739 mmHg 96%
19:00 -2°C° 0.7 mm 6 m/s 740 mmHg 96%
20:00 -3°C° 0.7 mm 6 m/s 740 mmHg 96%
21:00 -3°C° 0.1 mm 6 m/s 741 mmHg 93%
22:00 -3°C° 0.1 mm 6 m/s 742 mmHg 90%
23:00 -4°C° 0.1 mm 6 m/s 743 mmHg 87%

Mâine, 6 Martie, Sâmbătă

Timp Temperatura Precipitaţii Vânt Presiune Umiditate
00:00 -4°C° 0 mm 5 m/s 743 mmHg 83%
01:00 -4°C° 0 mm 5 m/s 744 mmHg 80%
02:00 -5°C° 0 mm 5 m/s 745 mmHg 76%
03:00 -4°C° 0 mm 4 m/s 745 mmHg 78%
04:00 -5°C° 0 mm 4 m/s 745 mmHg 81%
05:00 -5°C° 0 mm 3 m/s 746 mmHg 84%
06:00 -5°C° 0 mm 4 m/s 746 mmHg 80%
07:00 -5°C° 0 mm 4 m/s 747 mmHg 76%
08:00 -5°C° 0 mm 4 m/s 748 mmHg 73%
09:00 -4°C° 0 mm 4 m/s 748 mmHg 68%
10:00 -3°C° 0 mm 4 m/s 748 mmHg 62%
11:00 -2°C° 0 mm 5 m/s 748 mmHg 57%
12:00 -1°C° 0 mm 5 m/s 748 mmHg 55%
13:00 -1°C° 0 mm 5 m/s 748 mmHg 53%
14:00 0°C° 0 mm 5 m/s 748 mmHg 51%
15:00 0°C° 0.1 mm 5 m/s 748 mmHg 53%
16:00 -1°C° 0.1 mm 5 m/s 748 mmHg 55%
17:00 -1°C° 0.1 mm 5 m/s 748 mmHg 57%
18:00 -2°C° 0 mm 4 m/s 748 mmHg 61%
19:00 -2°C° 0 mm 3 m/s 749 mmHg 64%
20:00 -4°C° 0 mm 3 m/s 749 mmHg 68%
21:00 -4°C° 0 mm 3 m/s 749 mmHg 69%
22:00 -4°C° 0 mm 3 m/s 749 mmHg 70%
23:00 -4°C° 0 mm 3 m/s 750 mmHg 72%

Poimâine, 7 Martie, Duminică

Timp Temperatura Precipitaţii Vânt Presiune Umiditate
00:00 -4°C° 0 mm 3 m/s 749 mmHg 72%
01:00 -4°C° 0 mm 3 m/s 749 mmHg 73%
02:00 -4°C° 0 mm 3 m/s 749 mmHg 74%
03:00 -4°C° 0 mm 4 m/s 748 mmHg 73%
04:00 -4°C° 0 mm 4 m/s 748 mmHg 72%
05:00 -4°C° 0 mm 4 m/s 747 mmHg 71%
06:00 -5°C° 0 mm 5 m/s 747 mmHg 67%
07:00 -5°C° 0 mm 5 m/s 747 mmHg 64%
08:00 -4°C° 0 mm 6 m/s 746 mmHg 60%
09:00 -3°C° 0 mm 6 m/s 746 mmHg 56%
10:00 -2°C° 0 mm 7 m/s 745 mmHg 51%
11:00 -1°C° 0 mm 7 m/s 745 mmHg 46%
12:00 0°C° 0 mm 7 m/s 744 mmHg 46%
13:00 0°C° 0 mm 7 m/s 744 mmHg 45%
14:00 +1°C° 0 mm 8 m/s 743 mmHg 45%
15:00 +2°C° 0 mm 7 m/s 743 mmHg 49%
16:00 +1°C° 0 mm 6 m/s 742 mmHg 54%
17:00 +1°C° 0 mm 5 m/s 742 mmHg 58%
18:00 0°C° 0 mm 5 m/s 742 mmHg 61%
19:00 -1°C° 0 mm 4 m/s 742 mmHg 65%
20:00 -2°C° 0 mm 4 m/s 742 mmHg 68%
21:00 -2°C° 0 mm 4 m/s 741 mmHg 69%
22:00 -2°C° 0 mm 4 m/s 741 mmHg 70%
23:00 -2°C° 0 mm 4 m/s 741 mmHg 72%

8 Martie, Luni

Timp Temperatura Precipitaţii Vânt Presiune Umiditate
00:00 -3°C° 0 mm 4 m/s 741 mmHg 72%
01:00 -3°C° 0 mm 4 m/s 741 mmHg 73%
02:00 -2°C° 0 mm 3 m/s 740 mmHg 74%
03:00 -2°C° 0 mm 3 m/s 740 mmHg 73%
04:00 -3°C° 0 mm 4 m/s 740 mmHg 72%
05:00 -3°C° 0 mm 4 m/s 739 mmHg 70%
06:00 -3°C° 0 mm 4 m/s 739 mmHg 68%
07:00 -2°C° 0 mm 4 m/s 739 mmHg 66%
08:00 -2°C° 0 mm 4 m/s 739 mmHg 63%
09:00 -1°C° 0 mm 5 m/s 739 mmHg 59%
10:00 0°C° 0 mm 5 m/s 739 mmHg 55%
11:00 +2°C° 0 mm 6 m/s 739 mmHg 51%
12:00 +2°C° 0 mm 6 m/s 738 mmHg 53%
13:00 +2°C° 0 mm 6 m/s 738 mmHg 54%
14:00 +2°C° 0 mm 6 m/s 738 mmHg 55%
15:00 +2°C° 0 mm 6 m/s 738 mmHg 61%
16:00 +1°C° 0 mm 5 m/s 738 mmHg 68%
17:00 0°C° 0 mm 5 m/s 738 mmHg 74%
18:00 0°C° 0.1 mm 4 m/s 738 mmHg 80%
19:00 -1°C° 0.1 mm 4 m/s 739 mmHg 86%
20:00 -2°C° 0.1 mm 4 m/s 739 mmHg 92%
21:00 -3°C° 0.1 mm 4 m/s 740 mmHg 89%
22:00 -3°C° 0.1 mm 4 m/s 741 mmHg 85%
23:00 -4°C° 0.1 mm 4 m/s 741 mmHg 82%

9 Martie, Marţi

Timp Temperatura Precipitaţii Vânt Presiune Umiditate
00:00 -4°C° 0 mm 4 m/s 741 mmHg 82%
01:00 -4°C° 0 mm 4 m/s 742 mmHg 82%
02:00 -5°C° 0 mm 4 m/s 742 mmHg 82%
03:00 -5°C° 0 mm 4 m/s 742 mmHg 81%
04:00 -5°C° 0 mm 4 m/s 742 mmHg 79%
05:00 -5°C° 0 mm 4 m/s 743 mmHg 78%
06:00 -5°C° 0 mm 4 m/s 743 mmHg 75%
07:00 -6°C° 0 mm 5 m/s 743 mmHg 73%
08:00 -6°C° 0 mm 5 m/s 744 mmHg 70%
09:00 -5°C° 0 mm 5 m/s 744 mmHg 64%
10:00 -5°C° 0 mm 5 m/s 744 mmHg 58%
11:00 -4°C° 0 mm 5 m/s 744 mmHg 52%
12:00 -4°C° 0 mm 5 m/s 745 mmHg 50%
13:00 -4°C° 0 mm 5 m/s 745 mmHg 49%
14:00 -2°C° 0 mm 5 m/s 745 mmHg 47%
15:00 -4°C° 0 mm 5 m/s 745 mmHg 48%
16:00 -4°C° 0 mm 5 m/s 745 mmHg 49%
17:00 -4°C° 0 mm 5 m/s 745 mmHg 49%
18:00 -4°C° 0 mm 4 m/s 746 mmHg 53%
19:00 -5°C° 0 mm 4 m/s 746 mmHg 56%
20:00 -6°C° 0 mm 3 m/s 747 mmHg 60%
21:00 -6°C° 0 mm 3 m/s 747 mmHg 59%
22:00 -6°C° 0 mm 3 m/s 748 mmHg 58%
23:00 -6°C° 0 mm 3 m/s 748 mmHg 57%

10 Martie, Miercuri

Timp Temperatura Precipitaţii Vânt Presiune Umiditate
00:00 -6°C° 0 mm 3 m/s 748 mmHg 56%
01:00 -6°C° 0 mm 3 m/s 749 mmHg 56%
02:00 -7°C° 0 mm 3 m/s 749 mmHg 55%
03:00 -7°C° 0 mm 3 m/s 749 mmHg 56%
04:00 -7°C° 0 mm 3 m/s 749 mmHg 57%
05:00 -7°C° 0 mm 3 m/s 749 mmHg 58%
06:00 -8°C° 0 mm 3 m/s 750 mmHg 57%
07:00 -8°C° 0 mm 3 m/s 750 mmHg 57%
08:00 -8°C° 0 mm 3 m/s 750 mmHg 56%
09:00 -7°C° 0 mm 3 m/s 751 mmHg 50%
10:00 -5°C° 0 mm 2 m/s 751 mmHg 44%
11:00 -5°C° 0 mm 2 m/s 751 mmHg 38%
12:00 -4°C° 0 mm 2 m/s 751 mmHg 36%
13:00 -4°C° 0 mm 2 m/s 751 mmHg 33%
14:00 -3°C° 0 mm 2 m/s 751 mmHg 31%
15:00 -3°C° 0 mm 2 m/s 751 mmHg 31%
16:00 -1°C° 0 mm 1 m/s 750 mmHg 31%
17:00 -1°C° 0 mm 1 m/s 750 mmHg 31%
18:00 -1°C° 0 mm 1 m/s 750 mmHg 35%
19:00 -4°C° 0 mm 2 m/s 750 mmHg 39%
20:00 -4°C° 0 mm 2 m/s 750 mmHg 42%
21:00 -4°C° 0 mm 2 m/s 751 mmHg 42%
22:00 -5°C° 0 mm 2 m/s 751 mmHg 43%
23:00 -5°C° 0 mm 2 m/s 751 mmHg 43%
Arată mai mult

Formular de consimțământ

Meteoprog și furnizorii noștri de servicii pot stoca și accesa date personale, precum cookies, identificatori de dispozitiv sau alte tehnologii similare pe dispozitivul dumneavoastră și procesa astfel de date pentru a personaliza conținutul și reclamele, dar și pentru a oferi caracteristici de social media și pentru a analiza traficul.

  • Stocarea și/sau accesarea informațiilor pe dispozitivul dumneavoastră

    Cookies, identificatori de dispozitiv sau alte informații pot fi stocate sau accesate pe dispozitiv în scopurile indicate mai sus.

  • Reclame și conținut personalizat, evaluarea reclamelor și a conținutului, informații despre audiențe și dezvoltarea produselor

    Reclamele și conținutul pot fi personalizate pe baza unui profil. Pot fi adăugate date suplimentare pentru a personaliza mai bine reclamele și conținutul. Performanța reclamelor și conținutului poate fi măsurată. Pot fi obținute informații despre utilizatorii care au văzut reclamele și conținutul. Aceste date pot fi utilizate pentru a dezvolta sau îmbunătăți experiența utilizatorilor, sistemele și software-ul.

Dând clic pe ‘Sunt de acord’, permiteți utilizarea cookie-urilor menționate, a identificatorilor de dispozitiv, balizelor web sau altor tehnologii similare. Setările pot fi modificate din browser-ul dispozitivului dumneavoastră.

În anumite scopuri, interesele legitime pot prima asupra consimțământului. Puteți citi mai multe informații în acest sens în Politica privind Confidențialitatea Datelor și Cookie.